EW6254 Weather Reports


time (UTC)temp
F
wind
direction
speed
knots
gust
knots
rain 1hr
in
rain 24hr
in
rain mn
in
humidity
%
barometer
mb
20180221092111 8 315 3.5 7.0 0.00 0.00 0.00 80 1036.2
20180221091037 8 355 3.5 7.8 0.00 0.00 0.00 80 1036.2
20180221090034 8 355 2.6 7.8 0.00 0.00 0.00 80 1035.8
20180221085004 9 335 3.5 6.1 0.00 0.00 0.00 80 1036.0
20180221083956 9 331 3.5 7.0 0.00 0.00 0.00 80 1036.1
20180221083010 9 339 2.6 8.7 0.00 0.01 0.00 80 1036.1
20180221082028 9 0 1.7 8.7 0.00 0.01 0.00 80 1036.1
20180221081000 9 346 1.7 5.2 0.00 0.01 0.00 80 1035.9
20180221075927 9 325 0.9 0.0 0.00 0.01 0.00 80 1035.9
20180221074853 9 341 0.0 3.5 0.00 0.01 0.00 80 1035.8
20180221073830 9 340 1.7 0.0 0.00 0.01 0.00 80 1035.7
20180221072803 9 281 3.5 7.0 0.00 0.01 0.00 80 1035.5
20180221071813 9 332 2.6 9.6 0.00 0.01 0.00 80 1035.3
20180221070805 9 300 4.3 9.6 0.00 0.01 0.00 79 1034.9
20180221065751 10 290 5.2 10.4 0.00 0.01 0.00 79 1034.6
20180221064740 10 279 6.1 10.4 0.00 0.01 0.00 80 1034.4
20180221063723 10 347 4.3 9.6 0.00 0.01 0.00 80 1034.5
20180221062715 10 11 3.5 10.4 0.00 0.01 0.00 79 1034.4
20180221061702 10 329 4.3 11.3 0.00 0.01 0.00 79 1034.1
20180221060647 10 341 4.3 11.3 0.00 0.01 0.00 79 1033.8
20180221055629 10 324 4.3 8.7 0.00 0.01 0.01 79 1033.8
20180221054629 10 338 3.5 8.7 0.00 0.01 0.01 79 1033.6
20180221053608 10 338 3.5 7.8 0.00 0.01 0.01 79 1033.6
20180221052606 10 341 3.5 10.4 0.00 0.01 0.01 79 1033.4
20180221051549 10 302 4.3 10.4 0.00 0.01 0.01 79 1033.4
20180221050604 11 340 4.3 10.4 0.00 0.01 0.01 78 1033.0
20180221045623 11 313 5.2 13.0 0.00 0.01 0.01 78 1032.9
20180221044633 11 340 5.2 13.0 0.00 0.01 0.01 78 1032.9
20180221043646 11 331 4.3 12.2 0.00 0.01 0.01 78 1032.7
20180221042620 11 334 6.1 13.9 0.00 0.01 0.01 78 1032.6
20180221041614 11 5 6.1 13.9 0.00 0.01 0.01 78 1032.6
20180221040549 11 355 5.2 13.9 0.00 0.01 0.01 77 1032.4
20180221035528 11 28 5.2 14.8 0.00 0.01 0.01 78 1032.1
20180221034519 11 0 5.2 14.8 0.00 0.01 0.01 78 1031.6
20180221033453 12 344 6.1 13.9 0.00 0.01 0.01 78 1031.4
20180221032424 12 349 5.2 13.9 0.00 0.01 0.01 78 1031.2
20180221031406 12 348 5.2 13.0 0.00 0.01 0.01 78 1030.8
20180221030332 12 5 6.1 15.6 0.00 0.01 0.01 78 1030.9
20180221025313 12 0 5.2 15.6 0.00 0.01 0.01 78 1030.6
20180221024248 12 333 6.1 11.3 0.00 0.01 0.01 78 1030.5
20180221023244 13 330 3.5 14.8 0.00 0.01 0.01 78 1030.2
20180221022247 13 29 6.1 16.5 0.00 0.01 0.01 78 1030.1
20180221021235 13 341 7.8 16.5 0.00 0.01 0.01 78 1029.8
20180221020243 13 341 5.2 14.8 0.00 0.01 0.01 78 1029.8
20180221015215 14 336 6.1 13.0 0.00 0.01 0.01 78 1029.6
20180221014210 14 26 6.1 13.0 0.00 0.01 0.01 78 1029.6
20180221013215 14 9 5.2 13.9 0.00 0.01 0.01 77 1029.3
20180221012219 14 355 7.0 16.5 0.00 0.01 0.01 77 1029.1
20180221011228 14 332 7.0 16.5 0.00 0.01 0.01 77 1029.1
20180221010231 14 296 5.2 13.9 0.00 0.01 0.01 78 1028.8
20180221005219 15 333 6.1 14.8 0.00 0.01 0.01 77 1028.7
20180221004154 15 334 6.1 14.8 0.00 0.01 0.01 77 1028.3
20180221003129 15 342 5.2 13.9 0.00 0.01 0.01 77 1028.2
20180221002132 15 0 6.1 13.9 0.00 0.01 0.01 76 1028.2
20180221001147 15 355 7.0 13.0 0.00 0.01 0.01 76 1028.2
20180221000146 16 339 3.5 14.8 0.00 0.01 0.01 77 1028.0
20180220235120 16 0 6.1 14.8 0.00 0.01 0.01 76 1028.0
20180220234122 16 0 6.1 15.6 0.00 0.01 0.01 76 1027.6
20180220233142 16 0 6.1 18.2 0.00 0.01 0.01 76 1027.3
20180220232108 16 0 7.0 18.2 0.00 0.01 0.01 76 1027.3
20180220231104 16 0 6.1 15.6 0.00 0.01 0.01 76 1026.6
20180220230026 16 0 6.1 13.9 0.00 0.01 0.01 76 1026.3
20180220225007 17 0 6.1 15.6 0.00 0.01 0.01 76 1026.1
20180220223946 16 0 7.8 18.2 0.00 0.01 0.01 76 1026.3
20180220222924 16 0 7.8 18.2 0.00 0.01 0.01 76 1026.0
20180220221942 16 0 7.0 15.6 0.00 0.01 0.01 77 1025.9
20180220221005 16 0 8.7 15.6 0.00 0.01 0.01 76 1025.5
20180220220001 17 0 6.1 16.5 0.00 0.01 0.01 77 1025.4
20180220215010 17 0 4.3 16.5 0.00 0.01 0.01 77 1025.8
20180220214004 17 0 5.2 15.6 0.00 0.01 0.01 77 1025.1
20180220213000 17 0 7.0 15.6 0.00 0.01 0.01 77 1025.0
20180220212010 16 0 6.1 14.8 0.00 0.01 0.01 77 1024.9
20180220210953 16 0 7.0 14.8 0.00 0.01 0.01 77 1024.5
20180220205942 16 0 7.0 14.8 0.00 0.01 0.01 78 1024.2
20180220204937 17 0 7.0 17.4 0.00 0.01 0.01 77 1024.1
20180220203947 16 0 6.1 17.4 0.00 0.01 0.01 78 1023.6
20180220203006 16 0 7.8 16.5 0.00 0.01 0.01 78 1023.3
20180220202029 16 0 7.0 19.1 0.00 0.01 0.01 78 1023.2
20180220201042 16 0 8.7 20.9 0.00 0.01 0.01 77 1023.1
20180220200035 16 0 6.1 20.9 0.00 0.01 0.01 78 1022.9
20180220195015 16 0 7.0 17.4 0.00 0.01 0.01 78 1022.8
20180220194001 16 0 7.8 17.4 0.00 0.01 0.01 78 1022.5
20180220193022 16 0 6.1 15.6 0.00 0.01 0.01 79 1022.6
20180220192015 16 0 6.1 15.6 0.00 0.01 0.01 79 1022.4
20180220190939 16 0 5.2 13.0 0.00 0.01 0.01 79 1022.5
20180220185908 16 0 5.2 13.0 0.00 0.01 0.01 78 1023.2
20180220184922 16 0 5.2 11.3 0.00 0.01 0.01 79 1022.8
20180220183904 16 0 3.5 13.0 0.00 0.01 0.01 79 1022.3
20180220182853 16 0 4.3 13.0 0.00 0.01 0.01 79 1022.4
20180220181832 16 27 4.3 12.2 0.00 0.01 0.01 80 1022.3
20180220180835 15 271 5.2 13.0 0.00 0.01 0.01 80 1021.9
20180220175843 15 0 4.3 13.0 0.00 0.01 0.01 80 1021.8
20180220174905 15 304 6.1 14.8 0.00 0.01 0.01 80 1021.6
20180220173849 14 0 6.1 15.6 0.00 0.01 0.01 79 1021.3
20180220172842 14 0 7.0 15.6 0.00 0.01 0.01 80 1021.4
20180220171823 14 0 7.0 13.9 0.00 0.01 0.01 79 1021.7
20180220170844 14 346 5.2 13.9 0.00 0.01 0.01 79 1021.3
20180220165902 15 294 6.1 13.9 0.00 0.01 0.01 80 1021.3
20180220164924 14 0 6.1 16.5 0.00 0.01 0.01 80 1021.2
20180220163918 14 0 5.2 17.4 0.00 0.01 0.01 81 1020.9
20180220162857 14 0 6.1 17.4 0.00 0.01 0.01 81 1020.8
20180220161852 15 0 3.5 13.9 0.00 0.01 0.01 81 1020.5
20180220160847 15 0 0.0 0.0 0.00 0.01 0.01 82 1020.3
20180220155823 15 0 0.0 0.0 0.00 0.01 0.01 82 1020.4
20180220154755 14 0 0.0 0.0 0.00 0.01 0.01 83 1020.6
20180220153749 14 0 0.0 0.0 0.00 0.01 0.01 83 1020.3
20180220152730 14 0 0.0 0.0 0.00 0.01 0.01 84 1020.1
20180220151713 14 0 0.0 0.0 0.00 0.01 0.01 84 1019.7
20180220150700 15 34 0.0 0.0 0.00 0.01 0.01 85 1020.0
20180220145722 15 291 0.0 0.0 0.00 0.01 0.01 85 1020.1
20180220144738 15 346 0.0 0.0 0.00 0.01 0.01 86 1019.8
20180220143714 15 336 0.0 0.0 0.00 0.01 0.01 86 1019.4
20180220142656 15 339 0.0 0.0 0.00 0.01 0.01 86 1019.1
20180220141707 15 301 0.0 0.0 0.00 0.01 0.01 87 1018.9
20180220140638 15 305 0.0 0.0 0.00 0.01 0.01 87 1018.6
20180220135632 15 309 0.0 0.0 0.00 0.01 0.01 88 1017.8
20180220134613 16 0 0.0 0.0 0.00 0.01 0.01 88 1017.3
20180220133631 16 299 0.0 0.0 0.00 0.01 0.01 89 1016.6
20180220132619 16 0 0.0 0.0 0.00 0.01 0.01 89 1016.6
20180220131551 16 306 0.0 0.0 0.00 0.01 0.01 89 1017.1
20180220130537 16 323 0.0 0.0 0.00 0.01 0.01 90 1016.6
20180220125558 16 0 0.0 0.0 0.00 0.01 0.01 90 1016.8
20180220124522 16 0 0.0 0.0 0.00 0.01 0.01 90 1017.4
20180220123509 16 0 0.0 0.0 0.00 0.01 0.01 90 1016.0
20180220122436 17 0 0.0 0.0 0.00 0.01 0.01 91 1015.7
20180220121429 17 0 0.0 0.0 0.00 0.01 0.01 91 1015.7
20180220120353 18 0 0.0 0.0 0.00 0.01 0.01 91 1016.2
20180220115331 18 0 0.0 0.0 0.00 0.01 0.01 91 1016.0
20180220114311 18 0 0.0 0.0 0.00 0.01 0.01 91 1015.4
20180220113316 18 0 0.0 0.0 0.00 0.01 0.01 91 1015.2
20180220112242 18 0 0.0 0.0 0.00 0.01 0.01 91 1015.6
20180220111227 18 0 0.0 0.0 0.00 0.01 0.01 91 1015.3
20180220110112 19 0 0.0 0.0 0.00 0.01 0.01 91 1014.8
20180220105113 19 0 0.0 0.0 0.00 0.01 0.01 91 1014.5
20180220104118 19 0 0.0 0.0 0.00 0.01 0.01 91 1014.2
20180220103105 19 0 0.0 0.0 0.00 0.01 0.01 91 1014.2
20180220102054 19 0 0.0 0.0 0.00 0.01 0.01 91 1014.2
20180220101112 19 0 3.5 8.7 0.00 0.02 0.01 91 1014.1
20180220100041 19 0 2.6 7.8 0.00 0.02 0.01 91 1013.9
20180220095008 19 0 2.6 7.0 0.00 0.02 0.01 91 1013.8
20180220094001 19 0 3.5 8.7 0.00 0.04 0.01 91 1013.7
20180220092942 19 0 3.5 9.6 0.00 0.04 0.01 91 1013.8